Big Bear City, CA

7:32 AM PDT on September 19, 2019 (GMT -0700)
Big Bear City

Weather History for KL35 - May, 2019

Change the Weather History Date:

Saturday, May 18, 2019

  Actual Average (KBUO) Record (KBUO)
Temperature  
Mean Temperature 40 °F -  
Max Temperature 55 °F 76 °F 86 °F (2000)
Min Temperature 24 °F 51 °F 44 °F (1998)
Degree Days  
Heating Degree Days 26    
Moisture  
Dew Point 23 °F    
Average Humidity 52    
Maximum Humidity 81    
Minimum Humidity 19    
Precipitation  
Precipitation 0.00 in - - ()
Sea Level Pressure  
Sea Level Pressure 30.01 in    
Wind  
Wind Speed 3 mph (WSW)    
Max Wind Speed 17 mph    
Max Gust Speed 26 mph    
Visibility 10 miles    
Events      
Averages and records for this station are not official NWS values.
T = Trace of Precipitation, MM = Missing Value Source: NWS Daily Summary

Daily Weather History Graph

Daily Weather History Graph

Search for Another Location

Airport or City:

Astronomy

May. 18, 2019 Rise Set
Actual Time 5:43 AM PDT 7:44 PM PDT
Civil Twilight 5:15 AM PDT 8:12 PM PDT
Nautical Twilight 4:41 AM PDT 8:46 PM PDT
Astronomical Twilight 4:05 AM PDT 9:23 PM PDT
Moon 7:47 PM PDT (5/18) 5:49 AM PDT (5/18)
Length of Visible Light 14h 57m
Length of Day
14h 01m
Full, 100% of the Moon is Illuminated
May 18
Full
May 18
Full
May 26
Last Quarter
Jun 3
New
Jun 9
First Quarter

Hourly Weather History & Observations

Time (PDT) Temp. Windchill Dew Point Humidity Pressure Visibility Wind Dir Wind Speed Gust Speed Precip Events Conditions
12:15 AM 32.0 °F - 23.0 °F 69% 30.04 in 10.0 mi Calm Calm - N/A   Clear
12:35 AM 30.2 °F - 21.2 °F 69% 30.05 in 10.0 mi Calm Calm - N/A   Clear
12:55 AM 28.4 °F - 21.2 °F 74% 30.04 in 10.0 mi Calm Calm - N/A   Clear
1:15 AM 28.4 °F - 21.2 °F 74% 30.03 in 10.0 mi Calm Calm - N/A   Clear
1:35 AM 28.4 °F - 21.2 °F 74% 30.02 in 10.0 mi Calm Calm - N/A   Clear
1:55 AM 28.4 °F - 21.2 °F 74% 30.02 in 10.0 mi Calm Calm - N/A   Clear
2:15 AM 28.4 °F - 19.4 °F 69% 30.02 in 10.0 mi Calm Calm - N/A   Clear
2:35 AM 26.6 °F - 17.6 °F 69% 30.02 in 10.0 mi Calm Calm - N/A   Clear
2:55 AM 26.6 °F - 17.6 °F 69% 30.01 in 10.0 mi Calm Calm - N/A   Clear
3:15 AM 28.4 °F - 19.4 °F 69% 30.01 in 10.0 mi Calm Calm - N/A   Clear
3:35 AM 26.6 °F - 15.8 °F 64% 30.01 in 10.0 mi Calm Calm - N/A   Clear
3:55 AM 26.6 °F - 17.6 °F 69% 30.01 in 10.0 mi Calm Calm - N/A   Clear
4:15 AM 26.6 °F - 15.8 °F 64% 30.01 in 10.0 mi Calm Calm - N/A   Clear
4:35 AM 26.6 °F - 15.8 °F 64% 30.01 in 10.0 mi Calm Calm - N/A   Clear
4:55 AM 26.6 °F - 14.0 °F 59% 30.01 in 10.0 mi Calm Calm - N/A   Clear
5:15 AM 26.6 °F - 15.8 °F 64% 30.01 in 10.0 mi Calm Calm - N/A   Clear
5:35 AM 26.6 °F - 17.6 °F 69% 30.00 in 10.0 mi Calm Calm - N/A   Clear
5:55 AM 24.8 °F - 15.8 °F 69% 30.01 in 10.0 mi Calm Calm - N/A   Clear
6:15 AM 26.6 °F - 15.8 °F 64% 30.02 in 10.0 mi Calm Calm - N/A   Clear
6:35 AM 28.4 °F - 19.4 °F 69% 30.02 in 10.0 mi Calm Calm - N/A   Clear
6:55 AM 30.2 °F - 19.4 °F 64% 30.02 in 10.0 mi Calm Calm - N/A   Clear
7:15 AM 32.0 °F - 24.8 °F 75% 30.02 in 10.0 mi Calm Calm - N/A   Clear
7:35 AM 35.6 °F - 26.6 °F 70% 30.02 in 10.0 mi Calm Calm - N/A   Clear
7:55 AM 41.0 °F - 24.8 °F 53% 30.03 in 10.0 mi Calm Calm - N/A   Clear
8:15 AM 44.6 °F - 23.0 °F 43% 30.03 in 10.0 mi Calm Calm - N/A   Clear
8:35 AM 46.4 °F - 19.4 °F 34% 30.03 in 10.0 mi Calm Calm - N/A   Clear
8:55 AM 48.2 °F - 14.0 °F 25% 30.03 in 10.0 mi Calm Calm - N/A   Clear
9:15 AM 51.8 °F - 10.4 °F 19% 30.03 in 10.0 mi Calm Calm - N/A   Clear
9:35 AM 51.8 °F - 10.4 °F 19% 30.02 in 10.0 mi West 5.8 mph - N/A   Clear
9:55 AM 53.6 °F - 12.2 °F 19% 30.02 in 10.0 mi WNW 3.5 mph - N/A   Clear
10:15 AM 53.6 °F - 14.0 °F 21% 30.03 in 10.0 mi West 8.1 mph - N/A   Clear
10:35 AM 53.6 °F - 14.0 °F 21% 30.02 in 10.0 mi WNW 5.8 mph - N/A   Clear
10:55 AM 55.4 °F - 14.0 °F 20% 30.03 in 10.0 mi West 10.4 mph - N/A   Clear
11:15 AM 53.6 °F - 23.0 °F 30% 30.04 in 10.0 mi West 12.7 mph 17.3 mph N/A   Clear
11:35 AM 53.6 °F - 28.4 °F 38% 30.05 in 10.0 mi WSW 8.1 mph - N/A   Clear
11:55 AM 53.6 °F - 30.2 °F 41% 30.04 in 10.0 mi West 10.4 mph - N/A   Clear
12:15 PM 55.4 °F - 28.4 °F 36% 30.04 in 10.0 mi SW 6.9 mph - N/A   Clear
12:35 PM 55.4 °F - 26.6 °F 33% 30.04 in 10.0 mi WSW 9.2 mph - N/A   Clear
12:55 PM 55.4 °F - 28.4 °F 36% 30.04 in 10.0 mi WSW 8.1 mph 20.7 mph N/A   Clear
1:15 PM 55.4 °F - 30.2 °F 38% 30.04 in 10.0 mi WSW 11.5 mph 20.7 mph N/A   Clear
1:35 PM 53.6 °F - 26.6 °F 35% 30.04 in 10.0 mi West 11.5 mph - N/A   Clear
1:55 PM 55.4 °F - 24.8 °F 31% 30.04 in 10.0 mi West 12.7 mph 19.6 mph N/A   Clear
2:15 PM 53.6 °F - 21.2 °F 28% 30.04 in 10.0 mi SW 9.2 mph 17.3 mph N/A   Clear
2:35 PM 53.6 °F - 21.2 °F 28% 30.04 in 10.0 mi West 13.8 mph 26.5 mph N/A   Clear
2:55 PM 53.6 °F - 21.2 °F 28% 30.03 in 10.0 mi West 11.5 mph 23.0 mph N/A   Clear
3:15 PM 53.6 °F - 14.0 °F 21% 30.03 in 10.0 mi West 17.3 mph 21.9 mph N/A   Scattered Clouds
3:35 PM 51.8 °F - 17.6 °F 26% 30.02 in 10.0 mi West 15.0 mph 25.3 mph N/A   Scattered Clouds
3:55 PM 51.8 °F - 23.0 °F 33% 30.02 in 10.0 mi West 17.3 mph - N/A   Mostly Cloudy
4:15 PM 51.8 °F - 19.4 °F 28% 30.01 in 10.0 mi SW 11.5 mph 19.6 mph N/A   Mostly Cloudy
4:35 PM 50.0 °F - 12.2 °F 22% 30.01 in 10.0 mi WSW 12.7 mph 19.6 mph N/A   Overcast
4:55 PM 48.2 °F - 21.2 °F 34% 30.01 in 10.0 mi SW 9.2 mph 19.6 mph N/A   Mostly Cloudy
5:15 PM 48.2 °F - 23.0 °F 37% 30.01 in 10.0 mi West 4.6 mph - N/A   Overcast
5:35 PM 46.4 °F 42.4 °F 26.6 °F 46% 30.00 in 10.0 mi West 8.1 mph - N/A   Overcast
5:55 PM 46.4 °F 44.3 °F 24.8 °F 43% 30.00 in 10.0 mi WSW 4.6 mph - N/A   Overcast
6:15 PM 46.4 °F 44.3 °F 23.0 °F 40% 29.99 in 10.0 mi West 4.6 mph - N/A   Overcast
6:35 PM 46.4 °F 41.9 °F 26.6 °F 46% 29.98 in 10.0 mi West 9.2 mph - N/A   Scattered Clouds
6:55 PM 44.6 °F 39.7 °F 26.6 °F 49% 29.98 in 10.0 mi West 9.2 mph - N/A   Scattered Clouds
7:15 PM 44.6 °F 42.2 °F 28.4 °F 53% 29.98 in 10.0 mi SSW 4.6 mph - N/A   Mostly Cloudy
7:35 PM 42.8 °F 41.1 °F 32.0 °F 66% 29.98 in 10.0 mi SW 3.5 mph - N/A   Overcast
7:55 PM 41.0 °F 38.0 °F 32.0 °F 70% 29.97 in 10.0 mi SSW 4.6 mph - N/A   Mostly Cloudy
8:15 PM 41.0 °F 37.1 °F 32.0 °F 70% 29.98 in 10.0 mi WSW 5.8 mph - N/A   Overcast
8:35 PM 41.0 °F 34.7 °F 32.0 °F 70% 29.97 in 10.0 mi West 10.4 mph - N/A   Mostly Cloudy
8:55 PM 41.0 °F 35.8 °F 32.0 °F 70% 29.97 in 10.0 mi West 8.1 mph - N/A   Scattered Clouds
9:15 PM 41.0 °F - 30.2 °F 65% 29.97 in 10.0 mi Calm Calm - N/A   Mostly Cloudy
9:35 PM 41.0 °F 35.8 °F 30.2 °F 65% 29.97 in 10.0 mi WSW 8.1 mph - N/A   Overcast
9:55 PM 41.0 °F 36.4 °F 32.0 °F 70% 29.96 in 10.0 mi WSW 6.9 mph - N/A   Overcast
10:15 PM 41.0 °F 35.8 °F 32.0 °F 70% 29.95 in 10.0 mi West 8.1 mph 16.1 mph N/A   Overcast
10:35 PM 41.0 °F 35.2 °F 33.8 °F 76% 29.94 in 10.0 mi WSW 9.2 mph 17.3 mph N/A   Overcast
10:55 PM 41.0 °F 35.8 °F 33.8 °F 76% 29.93 in 10.0 mi SW 8.1 mph 16.1 mph N/A   Overcast
11:15 PM 41.0 °F 33.9 °F 35.6 °F 81% 29.92 in 10.0 mi West 12.7 mph 23.0 mph N/A   Mostly Cloudy
11:35 PM 39.2 °F 31.6 °F 33.8 °F 81% 29.92 in 10.0 mi SW 12.7 mph 25.3 mph N/A   Mostly Cloudy
11:55 PM 41.0 °F 34.7 °F 33.8 °F 76% 29.93 in 10.0 mi WSW 10.4 mph 26.5 mph N/A   Mostly Cloudy